Weather in Zhazhlevo

Russia / Ivanovo Oblast     57°27′18″N   42°24′41″E
temp.,
°C
wind,
m/s
gust,
m/s
humid.,
%
clouds,
%
prec.,
mm/h
press.,
hPa
HPBL,
m
3 march, wed
wed300:00−6nw5128996 0.0 1004645
03:00−7nw5129197 0.0 1007621
06:00−7nw41193100 0.1 1008533
09:00−7nw5991100 0.1 1009609
12:00−5nw5886100 0.1 1009778
15:00−3w488799 0.1 1008778
18:00−4wsw3109599 0.1 1005437
21:00−2w5129298 0.5 1004732
4 march, thu
thu400:00−2wsw51294100 0.1 1000697
03:00−2wsw51295100 0.6 997851
06:00−1wsw41095100 0.4 993583
09:000wnw71383100 0.9 9911064
12:00−2wnw6118578 0.2 9921121
15:00−1wnw6108889 0.4 9951061
18:00−5nw399099 0.3 997330
21:00−9nnw2395100 0.3 100049
5 march, fri
fri500:00−12nnw229766 0.0 100121
03:00−14nnw129741 0.0 100220
06:00−15nw129711 0.0 100420
09:00−12w12965 0.0 1004108
12:00−6w239290 0.0 1005436
15:00−5w348795 0.1 1006677
18:00−8wsw239596 0.0 100689
21:00−9w239696 0.1 100979
6 march, sat
sat600:00−12nw239797 0.1 101043
03:00−16nw239789 0.1 101248
06:00−19nw239567 0.0 101374
09:00−17nw259334 0.0 1014218
12:00−12nw358656 0.0 1014725
15:00−11wnw358578 0.1 1013893
18:00−13w2595100 0.1 1013134
21:00−17wsw239890 0.1 101236
7 march, sun
sun700:00−18sw239818 0.0 101125
03:00−17s389844 0.0 1008167
06:00−13s5129399 0.0 1003394
09:00−10ssw61393100 0.7 999776
12:00−7s61292100 0.8 994988
15:00−5s51194100 2.3 991864
18:00−9wnw31080100 1.1 990470
21:00−15nw238283 1.1 99125